Weather in Onguren

Russia / Irkutsk Oblast     53°37′55″N   107°35′31″E
temp.,
°C
wind,
m/s
gust,
m/s
humid.,
%
clouds,
%
prec.,
mm/h
press.,
hPa
HPBL,
m
17 may, tue
tue1723:00+7w2258100 0.0 100820
02:00+7nw226493 0.0 100930
05:00+6wnw367289 0.0 1009155
08:00+11wnw4867100 0.1 1009567
11:00+11nw4575100 0.7 10081057
14:00+11nw598142 2.5 1008891
17:00+15nw495826 0.4 10071394
20:00+12nw310645 0.5 1008358
18 may, wed
wed1823:00+9nw414713 0.0 1010383
02:00+5wnw228817 0.0 101331
05:00+5wnw2287100 0.0 101443
08:00+11nw2666100 0.0 1013395
11:00+13nnw5855100 0.0 10131277
14:00+16nnw594898 0.0 10121898
17:00+17nnw364463 0.0 10111546
20:00+12w117078 0.0 101311
19 may, thu
thu1923:00+9wnw117840 0.0 101411
02:00+9wnw11758 0.0 101311
05:00+8w227425 0.0 101317
08:00+16w274969 0.0 1012439
11:00+18wnw6124897 0.0 10121879
14:00+18nw594785 0.2 10101696
17:00+19wnw5114111 0.1 10092423
20:00+14wnw25546 0.1 1010121
20 may, fri
fri2023:00+11wnw22705 0.0 101031
02:00+9wnw226821 0.0 101121
05:00+9wnw216736 0.0 101016
08:00+15nw2348100 0.0 1009355
11:00+19nw473756 0.0 10081541
14:00+20nw5936100 0.0 10082134
17:00+20nnw4736100 0.0 10071158
20:00+13wnw237947 0.1 100991
21 may, sat
sat2123:00+10wnw2290100 0.0 101038
02:00+10wnw2393100 0.0 101059
05:00+10nw2798100 0.6 1010323
08:00+9nnw81494100 6.7 10121206
11:00+9nnw51287100 4.8 10141217
14:00+14nnw5114914 4.9 10132059
17:00+16nnw373930 0.0 10112032
20:00+12nne115956 0.0 101111